Date,TemperatureHighF,TemperatureAvgF,TemperatureLowF,DewpointHighF,DewpointAvgF,DewpointLowF,HumidityHigh,HumidityAvg,HumidityLow,PressureMaxIn,PressureMinIn,WindSpeedMaxMPH,WindSpeedAvgMPH,GustSpeedMaxMPH,PrecipitationSumIn
2013-3-1,38.9,35.7,34.0,35.1,32.3,29.9,96,88,76,29.75,29.59,15,9,22,0.01
2013-3-2,35.4,31.7,25.5,32.1,28.2,23.8,95,87,74,29.77,29.72,16,7,20,0.00
2013-3-3,33.4,28.8,25.0,28.2,24.6,22.2,94,85,75,29.75,29.66,10,4,13,0.06
2013-3-4,34.0,29.0,27.1,26.1,23.9,22.4,90,81,66,29.89,29.68,14,4,20,0.00
2013-3-5,36.7,30.9,27.2,29.8,26.8,23.5,92,85,72,30.10,29.89,16,4,20,0.01
2013-3-6,46.0,37.0,27.6,38.0,30.4,25.3,94,78,56,30.18,30.07,11,4,16,0.00
2013-3-7,38.7,35.8,33.0,29.8,27.4,24.1,84,71,58,30.20,30.14,18,8,24,0.00
2013-3-8,40.2,34.8,30.7,30.2,28.2,25.3,88,77,66,30.32,30.14,25,13,35,0.00
2013-3-9,48.5,37.2,28.2,32.9,27.3,23.5,85,69,42,30.36,30.29,16,6,20,0.00
2013-3-10,55.4,43.4,27.7,33.6,29.3,24.4,90,61,37,30.34,30.10,22,10,30,0.00
2013-3-11,50.7,47.3,42.3,39.2,35.6,31.8,74,64,50,30.16,29.93,24,15,34,0.00
2013-3-12,53.9,48.7,39.2,53.2,46.7,35.9,100,93,61,29.97,29.65,20,8,29,1.60
2013-3-13,44.5,38.2,32.0,40.6,36.1,29.8,100,93,77,29.82,29.72,11,1,14,0.04
2013-3-14,33.9,28.5,21.5,30.9,19.6,8.6,91,69,55,29.92,29.72,21,8,26,0.00
2013-3-15,35.7,27.5,17.7,31.7,18.7,7.8,95,71,48,29.93,29.54,20,9,29,0.00
2013-3-16,30.1,25.6,20.4,24.8,16.8,13.3,88,69,58,29.92,29.73,14,6,18,0.00
2013-3-17,28.9,22.4,13.7,18.2,11.1,5.1,88,63,42,30.35,29.91,19,7,25,0.00
2013-3-18,34.9,24.9,12.0,25.5,11.9,3.8,78,59,40,30.45,30.10,14,2,18,0.00
2013-3-19,35.1,32.1,29.6,34.8,31.2,25.2,100,96,78,30.11,29.70,14,3,21,0.17
2013-3-20,36.1,30.0,20.6,30.8,25.0,18.2,97,82,64,29.71,29.63,16,5,22,0.08
2013-3-21,39.0,30.6,24.3,26.1,20.8,17.2,82,67,46,29.72,29.61,14,7,20,0.02
2013-3-22,38.4,28.3,17.3,28.8,20.6,12.7,86,73,55,29.75,29.63,11,3,14,0.02
2013-3-23,40.3,35.1,29.1,27.5,24.0,21.6,79,64,50,29.81,29.67,21,8,29,0.00
2013-3-24,41.9,36.7,29.1,29.3,27.0,23.4,81,68,58,29.87,29.78,15,6,20,0.00
2013-3-25,42.6,35.7,26.8,33.7,29.4,22.3,91,78,63,29.81,29.55,16,6,23,0.00
2013-3-26,46.6,39.0,31.8,33.5,29.5,25.9,86,70,49,29.80,29.60,18,9,26,0.00
2013-3-27,51.3,42.0,31.9,37.1,32.2,27.0,86,69,51,29.93,29.77,15,5,21,0.00
2013-3-28,53.5,42.6,36.7,42.3,37.5,34.4,97,83,60,30.05,29.92,14,3,20,0.01
2013-3-29,51.2,43.8,35.8,41.4,36.4,32.7,94,76,56,30.08,30.00,14,4,20,0.00
2013-3-30,54.2,41.8,29.2,38.5,28.4,22.8,95,63,31,30.11,30.02,13,3,17,0.00
2013-3-31,59.0,44.7,29.4,43.0,30.9,22.3,94,61,37,30.09,29.70,24,10,32,0.07